Location: Namasale
(1.5000°N, 32.6167°E)
Time: 21:55:54
(UTC+00:00)

Transit 2A - Pass Details

Date: 22 April 2021
Orbit: 602 x 957 km, 66.7° (Epoch: 11 May)

Event Time Altitude Azimuth Distance (km) Brightness Sun altitude
Rises 03:04:21 0° 205° (SSW) 3,421 9.0 -10.4°
Reaches altitude 10° 03:06:57 10° 208° (SSW) 2,429 8.2 -9.7°
Maximum altitude 03:12:28 65° 289° (WNW) 840 6.0 -8.4°
Drops below altitude 10° 03:17:24 10° 11° (N) 2,182 8.7 -7.2°
Sets 03:19:39 0° 14° (NNE) 3,047 9.5 -6.6°
